Weather in Zeya

Russia / Amur Oblast     53°44′02″N   127°15′57″E
temp.,
°C
wind,
m/s
gust,
m/s
humid.,
%
clouds,
%
prec.,
mm/h
press.,
hPa
HPBL,
m
13 april, tue
tue1300:00−13nnw26855 0.0 101798
03:00−14n24867 0.0 101656
06:00−15n24846 0.0 101589
09:00−8n365340 0.0 1013700
12:00−4nne453948 0.0 10111782
15:00−3n4543100 0.0 10102121
18:00−4n365487 0.1 10091361
21:00−10n24926 0.1 101067
14 april, wed
wed1400:00−11n24949 0.0 100972
03:00−12n259233 0.0 100973
06:00−13nne22864 0.0 100940
09:00−5nnw23500 0.0 1008499
12:00−2wnw2339100 0.0 10071930
15:00−1wnw2339100 0.1 10061911
18:00−2nnw244951 0.0 1007759
21:00−8n21854 0.0 100916
15 april, thu
thu1500:00−9n218853 0.0 100923
03:00−10nne119163 0.0 100921
06:00−11nne119510 0.0 100921
09:00−2wnw12600 0.0 1009393
12:00+2w1343100 0.0 10091588
15:00+3wsw2249100 0.1 10091425
18:00+1sse1162100 0.1 101027
21:00−3ene2289100 0.1 101335
16 april, fri
fri1600:00−4ne2193100 0.0 101328
03:00−5nne2191100 0.0 101328
06:00−5nne2287100 0.0 101346
09:00−1nne3459100 0.0 1013312
12:00+2nne4746100 0.0 10121065
15:00+2nne4643100 0.0 10121088
18:00+1nne3556100 0.0 1013566
21:00−3n228331 0.0 101436
17 april, sat
sat1700:00−5nne22844 0.0 101433
03:00−6nne22845 0.0 101425
06:00−6nne22955 0.0 101237
09:00+1nne01665 0.0 1012420
12:00+5wsw11505 0.0 1011973
15:00+7wsw22375 0.0 10101353
18:00+5ssw23485 0.0 101068
21:000e11605 0.0 101210